Weather History for KBVO - March, 2013

Change the Weather History Date:

Thursday, March 28, 2013

  Actual Average Record
Temperature  
Mean Temperature 51 °F -  
Max Temperature 72 °F 67 °F 87 °F (1963)
Min Temperature 30 °F 45 °F 22 °F (1955)
Degree Days  
Heating Degree Days 14    
Growing Degree Days 1 (Base 50)    
Moisture  
Dew Point 40 °F    
Average Humidity 65    
Maximum Humidity 92    
Minimum Humidity 42    
Precipitation  
Precipitation 0.00 in - - ()
Sea Level Pressure  
Sea Level Pressure 30.13 in    
Wind  
Wind Speed 3 mph (SSE)    
Max Wind Speed 13 mph    
Max Gust Speed -    
Visibility 10 miles    
Events      
Averages and records for this station are not official NWS values.
T = Trace of Precipitation, MM = Missing Value Source: NWS Daily Summary

Daily Weather History Graph

Daily Weather History Graph

Search for Another Location

Airport or City:

Trip Planner

Search our weather history database for the weather conditions in past years. The results will help you decide how hot, cold, wet, or windy it might be!

Date:

Astronomy

Mar. 28, 2013 Rise Set
Actual Time 7:15 AM CDT 7:43 PM CDT
Civil Twilight 6:49 AM CDT 8:09 PM CDT
Nautical Twilight 6:18 AM CDT 8:39 PM CDT
Astronomical Twilight 5:47 AM CDT 9:10 PM CDT
Moon 9:32 PM CDT (3/28) 7:47 AM CDT (3/28)
Length of Visible Light 13h 19m
Length of Day
12h 27m
Full, 98% of the Moon is Illuminated
Mar 28
Full
Apr 2
Last Quarter
Apr 10
New
Apr 18
First Quarter
Apr 25
Full

Hourly Weather History & Observations

Time (CDT) Temp. Dew Point Humidity Pressure Visibility Wind Dir Wind Speed Gust Speed Precip Events Conditions
12:53 AM 37.0 °F 32.0 °F 82% 30.15 in 10.0 mi Calm Calm - N/A   Clear
1:53 AM 34.0 °F 30.9 °F 89% 30.15 in 10.0 mi Calm Calm - N/A   Clear
2:53 AM 33.1 °F 30.0 °F 89% 30.15 in 10.0 mi Calm Calm - N/A   Clear
3:53 AM 32.0 °F 28.9 °F 88% 30.14 in 10.0 mi Calm Calm - N/A   Clear
4:53 AM 30.9 °F 28.9 °F 92% 30.14 in 10.0 mi Calm Calm - N/A   Clear
5:53 AM 32.0 °F 28.9 °F 88% 30.14 in 10.0 mi Calm Calm - N/A   Clear
6:53 AM 30.0 °F 28.0 °F 92% 30.15 in 10.0 mi Calm Calm - N/A   Clear
7:53 AM 33.1 °F 30.9 °F 92% 30.18 in 6.0 mi Calm Calm - N/A   Clear
8:53 AM 45.0 °F 34.0 °F 65% 30.18 in 9.0 mi Calm Calm - N/A   Clear
9:53 AM 51.1 °F 34.0 °F 52% 30.19 in 10.0 mi SSE 8.1 mph - N/A   Clear
10:53 AM 57.9 °F 37.9 °F 47% 30.19 in 10.0 mi South 8.1 mph - N/A   Clear
11:53 AM 61.0 °F 41.0 °F 48% 30.18 in 10.0 mi SE 6.9 mph - N/A   Clear
12:53 PM 68.0 °F 44.1 °F 42% 30.16 in 10.0 mi Variable 5.8 mph - N/A   Clear
1:53 PM 66.9 °F 45.0 °F 45% 30.14 in 10.0 mi SSW 4.6 mph - N/A   Clear
2:53 PM 66.9 °F 46.0 °F 47% 30.12 in 10.0 mi South 10.4 mph - N/A   Clear
3:53 PM 69.1 °F 48.0 °F 47% 30.09 in 10.0 mi SE 10.4 mph - N/A   Clear
4:53 PM 72.0 °F 48.9 °F 44% 30.06 in 10.0 mi SSE 10.4 mph - N/A   Clear
5:53 PM 71.1 °F 50.0 °F 47% 30.05 in 10.0 mi SE 9.2 mph - N/A   Clear
6:53 PM 69.1 °F 48.9 °F 49% 30.06 in 10.0 mi SSE 12.7 mph - N/A   Clear
7:53 PM 66.9 °F 48.9 °F 52% 30.08 in 10.0 mi SSE 6.9 mph - N/A   Overcast
8:53 PM 64.9 °F 50.0 °F 58% 30.09 in 10.0 mi South 6.9 mph - N/A   Mostly Cloudy
9:53 PM 61.0 °F 48.9 °F 64% 30.11 in 10.0 mi SSE 4.6 mph - N/A   Mostly Cloudy
10:53 PM 57.0 °F 48.9 °F 74% 30.11 in 10.0 mi Calm Calm - N/A   Overcast
11:53 PM 57.9 °F 48.9 °F 72% 30.11 in 10.0 mi South 4.6 mph - N/A   Mostly Cloudy